Regional Weather Roundup
Issued by NWS

Home | Current Version | Previous Version | Text Only | Print | Product List | Glossary Off
Versions: 1 2 3 4 5 6 7 8 9 10 11 12 13 14 15 16 17 18 19 20 21 22 23 24 25 26 27 28 29 30 31 32 33 34 35 36 37 38 39 40 41 42 43 44 45 46 47 48 49 50

171
ASUS44 KLIX 030505
RWRLA
LOUISIANA WEATHER ROUNDUP
NATIONAL WEATHER SERVICE NEW ORLEANS LA
1100 PM CST MON MAR 02 2015

NOTE: "FAIR" INDICATES FEW OR NO CLOUDS BELOW 12,000 FEET WITH NO
      SIGNIFICANT WEATHER AND/OR OBSTRUCTIONS TO VISIBILITY.
      SKY/WX - SKY CONDITION AND SIGNIFICANT WEATHER.
      TMP - AIR TEMPERATURE.    DP   - DEWPOINT TEMPERATURE.
      RH  - RELATIVE HUMIDITY.  PRES - PRESSURE.
      HX  - HEAT INDEX.         WCI  - WIND CHILL INDEX.

*  THESE STATIONS ARE NOT NWS OR FAA STATIONS AND ARE NOT UNDER
   NWS QUALITY CONTROL.

LAZ040-048-061>063-065-066-069-030600-
SOUTHEAST LOUISIANA

CITY           SKY/WX    TMP DP  RH WIND       PRES   REMARKS
N.O. AUDUBON   NOT AVBL
N.O. INTL ARPT FOG       67  65  93 S6        30.19F VSB 1
N.O. LAKEFRONT CLOUDY    63  59  87 CALM      30.20S
SLIDELL        FOG       66  65  96 E3        30.20S VSB 1
BATON ROUGE    FOG       56  56 100 CALM      30.20F VSB 1/4
BOOTHVILLE     FOG       65  65 100 SE3       30.20F VSB 1/4
BELLE CHASSE   FAIR      67  64  90 CALM      30.19S FOG
BOGALUSA*      FOG       65  62  91 CALM      30.22S VSB 1/4
GALLIANO*      FAIR      61  61  98 CALM      30.20S FOG
NEW ROADS*     FOG       49  49  99 NW3       30.21F VSB 1/4
GONZALES*      CLOUDY    66  66 100 CALM      30.19F FOG
HAMMOND*       NOT AVBL
HOUMA*         FOG       67  67 100 CALM      30.19F VSB 1/4
PORT FOURCHON* CLEAR     68  68 100 SE5       30.22F FOG

$$

LAZ041-044-053-054-030600-
SOUTHWEST LOUISIANA

CITY           SKY/WX    TMP DP  RH WIND       PRES   REMARKS
LAKE CHARLES   FOG       54  53  97 E7        30.18F VSB 1/2
LAFAYETTE      FOG       53  53 100 NE7       30.19F VSB 1/2
PATTERSON      MOCLDY    66  64  94 NE5       30.19F
SALT POINT       N/A     66  66 100 CALM      30.17F
NEW IBERIA     FOG       56  55  97 NE8       30.19F VSB 1/4
CHENAULT AIRPK FOG       53  53 100 NE7       30.19F VSB 3/4

$$

LAZ027-028-030600-
CENTRAL LOUISIANA

CITY           SKY/WX    TMP DP  RH WIND       PRES   REMARKS
FORT POLK      CLOUDY    47  47  99 E3        30.18F FOG
ALEXANDRIA INT FOG       44  44 100 NE5       30.21S VSB 3/4
ALEXANDRIA     CLOUDY    43  43 100 VRB3      30.21F FOG

$$

LAZ001-002-030600-
NORTHWEST LOUISIANA

CITY           SKY/WX    TMP DP  RH WIND       PRES   REMARKS
SHREVEPORT     CLOUDY    42  41  96 E6        30.21F
BARKSDALE AFB  CLOUDY    41  41  99 CALM      30.21F
DTN SHREVEPORT CLOUDY    41  39  93 CALM      30.22F FOG

$$

LAZ014-016-030600-
NORTHEAST LOUISIANA

CITY           SKY/WX    TMP DP  RH WIND       PRES   REMARKS
MONROE         CLOUDY    40  40 100 NE6       30.23F FOG
TALLULAH       CLOUDY    44  43  96 CALM      30.24F FOG

$$




USA.gov is the U.S. government's official web portal to all federal, state and local government web resources and services.